Simultaneous Nadir Overpasses (SNOs) Predictions

Prediction of SNOs between NOAA-21 and METOP-C Satellite Orbit:

Table of predicted SNOs for the next 14.0 days since TLE Epoch: 2/17/2024
Index Date (NOAA-21) Time (NOAA-21) Lat,Lon (NOAA-21) SZA (NOAA-21 ) Date (METOP-C) Time (METOP-C) Lat,Lon (METOP-C) SZA (METOP-C ) Distance(km) Time Diff (sec)
1 02/21/2024 00:49:26 73.51, 157.45 84.68 02/21/2024 00:50:31 73.47, 160.61 84.44 99.94 65
2 02/21/2024 01:40:09 -73.46, -35.13 95.39 02/21/2024 01:41:15 -73.40, -32.23 95.64 92.22 66
3 02/21/2024 02:30:50 73.20, 132.75 84.31 02/21/2024 02:31:59 73.15, 134.55 84.13 58.29 69
4 02/21/2024 03:21:33 -73.16, -59.83 95.76 02/21/2024 03:22:43 -73.08, -58.27 95.95 51.06 70
5 02/21/2024 04:12:14 72.90, 108.03 83.95 02/21/2024 04:13:27 72.83, 108.52 83.83 18.13 73
6 02/21/2024 05:02:57 -72.86, -84.56 96.12 02/21/2024 05:04:10 -72.81, -84.19 96.21 13.19 73
7 02/21/2024 05:53:41 72.75, 82.98 83.75 02/21/2024 05:54:50 72.75, 83.04 83.74 1.97 69
8 02/21/2024 06:44:25 -72.76,-109.72 96.26 02/21/2024 06:45:33 -72.74,-109.68 96.29 2.40 68
9 02/21/2024 07:35:11 72.75, 57.61 83.73 02/21/2024 07:36:12 72.73, 57.66 83.70 2.11 61
10 02/21/2024 08:25:54 -72.70,-134.98 96.34 02/21/2024 08:26:55 -72.72,-135.06 96.34 2.85 61
11 02/21/2024 09:16:40 72.70, 32.34 83.65 02/21/2024 09:17:34 72.71, 32.27 83.65 3.04 54
12 02/21/2024 10:07:24 -72.70,-160.36 96.37 02/21/2024 10:08:17 -72.70,-160.44 96.38 2.69 53
13 02/21/2024 10:58:10 72.69, 6.97 83.62 02/21/2024 10:58:56 72.69, 6.89 83.61 2.44 46
14 02/21/2024 11:48:54 -72.70, 174.27 96.39 02/21/2024 11:49:38 -72.73, 174.29 96.38 3.12 44
15 02/21/2024 12:39:40 72.69, -18.41 83.59 02/21/2024 12:40:18 72.67, -18.49 83.57 3.41 38
16 02/21/2024 13:30:24 -72.70, 148.90 96.42 02/21/2024 13:31:00 -72.71, 148.91 96.42 1.05 36
17 02/21/2024 14:21:10 72.69, -43.78 83.57 02/21/2024 14:21:39 72.71, -43.76 83.57 1.55 29
18 02/21/2024 15:11:54 -72.70, 123.53 96.45 02/21/2024 15:12:22 -72.69, 123.53 96.46 1.06 28
19 02/21/2024 16:02:40 72.69, -69.15 83.54 02/21/2024 16:03:01 72.69, -69.14 83.53 0.67 21
20 02/21/2024 16:53:24 -72.70, 98.15 96.47 02/21/2024 16:53:44 -72.67, 98.15 96.50 3.14 20
21 02/21/2024 17:44:10 72.69, -94.52 83.51 02/21/2024 17:44:23 72.67, -94.52 83.48 2.75 13
22 02/21/2024 18:34:54 -72.70, 72.78 96.50 02/21/2024 18:35:05 -72.70, 72.87 96.50 3.00 11
23 02/21/2024 19:25:40 72.69,-119.90 83.49 02/21/2024 19:25:44 72.70,-119.80 83.49 3.25 4
24 02/21/2024 20:16:24 -72.70, 47.41 96.53 02/21/2024 20:16:27 -72.68, 47.49 96.55 3.18 3
25 02/21/2024 21:07:10 72.69,-145.27 83.46 02/21/2024 21:07:06 72.68,-145.18 83.44 3.18 4
26 02/21/2024 21:57:53 -72.64, 22.14 96.61 02/21/2024 21:57:49 -72.66, 22.11 96.59 2.14 4
27 02/21/2024 22:48:39 72.64,-170.54 83.38 02/21/2024 22:48:28 72.66,-170.56 83.40 2.36 11
28 02/21/2024 23:39:23 -72.64, -3.23 96.64 02/21/2024 23:39:11 -72.64, -3.27 96.63 1.24 12
29 02/22/2024 00:30:09 72.64, 164.09 83.35 02/22/2024 00:29:50 72.64, 164.06 83.36 1.09 19
30 02/22/2024 01:20:53 -72.64, -28.61 96.66 02/22/2024 01:20:33 -72.62, -28.65 96.67 2.71 20
31 02/22/2024 02:11:39 72.64, 138.72 83.32 02/22/2024 02:11:12 72.62, 138.68 83.31 2.45 27
32 02/22/2024 03:02:23 -72.64, -53.98 96.69 02/22/2024 03:01:54 -72.65, -53.93 96.67 2.14 29
33 02/22/2024 03:53:09 72.63, 113.34 83.30 02/22/2024 03:52:33 72.65, 113.40 83.32 2.38 36
34 02/22/2024 04:43:53 -72.64, -79.35 96.72 02/22/2024 04:43:16 -72.63, -79.31 96.72 1.68 37
35 02/22/2024 05:34:39 72.63, 87.97 83.27 02/22/2024 05:33:55 72.63, 88.02 83.27 1.72 44
36 02/22/2024 06:25:23 -72.64,-104.73 96.74 02/22/2024 06:24:38 -72.61,-104.69 96.76 3.15 45
37 02/22/2024 07:16:09 72.63, 62.60 83.24 02/22/2024 07:15:17 72.61, 62.64 83.23 3.08 52
38 02/22/2024 08:06:52 -72.59,-130.00 96.82 02/22/2024 08:06:00 -72.59,-130.07 96.80 2.53 52
39 02/22/2024 08:57:38 72.58, 37.33 83.16 02/22/2024 08:56:39 72.59, 37.26 83.19 2.47 59
40 02/22/2024 09:48:22 -72.59,-155.37 96.85 02/22/2024 09:47:22 -72.57,-155.45 96.84 3.06 60
41 02/22/2024 10:39:08 72.58, 11.95 83.13 02/22/2024 10:38:01 72.57, 11.88 83.14 2.96 67
42 02/22/2024 11:29:52 -72.59, 179.26 96.88 02/22/2024 11:28:43 -72.60, 179.27 96.84 2.14 69
43 02/22/2024 12:20:37 72.53, -13.32 83.05 02/22/2024 12:19:23 72.55, -13.50 83.10 6.65 74
44 02/22/2024 13:11:21 -72.53, 153.99 96.96 02/22/2024 13:10:06 -72.53, 153.79 96.93 6.59 75
45 02/22/2024 14:02:01 72.22, -38.08 82.69 02/22/2024 14:00:50 72.27, -39.39 82.84 44.80 71
46 02/22/2024 14:52:45 -72.23, 129.22 97.32 02/22/2024 14:51:34 -72.21, 127.81 97.24 48.04 71
47 02/22/2024 15:43:25 71.91, -62.86 82.32 02/22/2024 15:42:18 71.94, -65.36 82.53 86.13 67
48 02/22/2024 16:34:09 -71.92, 104.44 97.68 02/22/2024 16:33:02 -71.88, 101.85 97.54 89.52 67



Historial Predications of SNOs between NOAA-21 and METOP-C
